• En España
  • Lista de países
  • Para 7 días
  • Temperatura del agua
  • Mapa Satelital
  • El tiempo en el mapa
  • Informadores
  • user-avatar
    Iniciar sesión

    Tiempo cada hora Yancevary

    Hoy, 22 Junio, Viernes

    Tiempo Temperatura Precipitaciones Viento Presión Humedad
    00:00 +13°C° 0 mm 5 mps 746 mmHg 70%
    01:00 +13°C° 0 mm 5 mps 746 mmHg 70%
    02:00 +13°C° 0 mm 6 mps 747 mmHg 69%
    03:00 +13°C° 0 mm 6 mps 747 mmHg 68%
    04:00 +13°C° 0 mm 6 mps 747 mmHg 70%
    05:00 +13°C° 0 mm 6 mps 748 mmHg 72%
    06:00 +14°C° 0 mm 6 mps 748 mmHg 74%
    07:00 +15°C° 0 mm 6 mps 749 mmHg 71%
    08:00 +16°C° 0 mm 7 mps 749 mmHg 67%
    09:00 +18°C° 0 mm 7 mps 749 mmHg 64%
    10:00 +20°C° 0 mm 7 mps 749 mmHg 61%
    11:00 +21°C° 0 mm 7 mps 750 mmHg 58%
    12:00 +22°C° 0 mm 7 mps 750 mmHg 56%
    13:00 +22°C° 0 mm 6 mps 750 mmHg 56%
    14:00 +22°C° 0 mm 6 mps 750 mmHg 55%
    15:00 +23°C° 0 mm 6 mps 750 mmHg 55%
    16:00 +22°C° 0 mm 5 mps 750 mmHg 59%
    17:00 +22°C° 0 mm 4 mps 750 mmHg 63%
    18:00 +21°C° 0 mm 3 mps 750 mmHg 68%
    19:00 +20°C° 0 mm 3 mps 751 mmHg 71%
    20:00 +18°C° 0 mm 2 mps 751 mmHg 74%
    21:00 +16°C° 0 mm 2 mps 751 mmHg 77%
    22:00 +15°C° 0 mm 2 mps 751 mmHg 78%
    23:00 +15°C° 0 mm 2 mps 751 mmHg 80%

    Mañana, 23 Junio, Sábado

    Tiempo Temperatura Precipitaciones Viento Presión Humedad
    00:00 +15°C° 0 mm 2 mps 752 mmHg 82%
    01:00 +15°C° 0 mm 2 mps 752 mmHg 84%
    02:00 +14°C° 0 mm 2 mps 752 mmHg 86%
    03:00 +14°C° 0 mm 2 mps 752 mmHg 88%
    04:00 +16°C° 0 mm 2 mps 752 mmHg 86%
    05:00 +17°C° 0 mm 2 mps 752 mmHg 85%
    06:00 +18°C° 0 mm 2 mps 752 mmHg 84%
    07:00 +20°C° 0 mm 2 mps 752 mmHg 79%
    08:00 +23°C° 0 mm 2 mps 752 mmHg 75%
    09:00 +25°C° 0 mm 2 mps 752 mmHg 71%
    10:00 +25°C° 0,1 mm 3 mps 752 mmHg 69%
    11:00 +26°C° 0,1 mm 3 mps 752 mmHg 67%
    12:00 +27°C° 0,1 mm 3 mps 752 mmHg 65%
    13:00 +27°C° 0,2 mm 3 mps 752 mmHg 65%
    14:00 +28°C° 0,2 mm 3 mps 752 mmHg 65%
    15:00 +28°C° 0,2 mm 3 mps 751 mmHg 65%
    16:00 +28°C° 0,5 mm 3 mps 751 mmHg 69%
    17:00 +27°C° 0,5 mm 2 mps 751 mmHg 74%
    18:00 +27°C° 0,5 mm 1 mps 751 mmHg 78%
    19:00 +25°C° 0,1 mm 1 mps 751 mmHg 81%
    20:00 +24°C° 0,1 mm 1 mps 752 mmHg 84%
    21:00 +22°C° 0,1 mm 1 mps 752 mmHg 87%
    22:00 +22°C° 0 mm 1 mps 752 mmHg 88%
    23:00 +22°C° 0 mm 1 mps 752 mmHg 89%

    Pasado mañana, 24 Junio, Domingo

    Tiempo Temperatura Precipitaciones Viento Presión Humedad
    00:00 +21°C° 0 mm 1 mps 752 mmHg 90%
    01:00 +21°C° 0 mm 1 mps 752 mmHg 91%
    02:00 +21°C° 0 mm 1 mps 753 mmHg 91%
    03:00 +20°C° 0 mm 1 mps 753 mmHg 92%
    04:00 +21°C° 0 mm 1 mps 753 mmHg 90%
    05:00 +22°C° 0 mm 1 mps 753 mmHg 87%
    06:00 +24°C° 0 mm 1 mps 753 mmHg 85%
    07:00 +25°C° 0 mm 1 mps 753 mmHg 81%
    08:00 +26°C° 0 mm 1 mps 753 mmHg 76%
    09:00 +28°C° 0 mm 1 mps 753 mmHg 72%
    10:00 +28°C° 0,3 mm 1 mps 753 mmHg 68%
    11:00 +29°C° 0,3 mm 1 mps 753 mmHg 65%
    12:00 +30°C° 0,3 mm 1 mps 753 mmHg 62%
    13:00 +30°C° 0,7 mm 1 mps 753 mmHg 61%
    14:00 +30°C° 0,7 mm 1 mps 753 mmHg 61%
    15:00 +30°C° 0,7 mm 1 mps 753 mmHg 61%
    16:00 +30°C° 0,9 mm 1 mps 753 mmHg 66%
    17:00 +29°C° 0,9 mm 1 mps 753 mmHg 72%
    18:00 +28°C° 0,9 mm 1 mps 753 mmHg 77%
    19:00 +27°C° 0,1 mm 1 mps 753 mmHg 80%
    20:00 +25°C° 0,1 mm 1 mps 753 mmHg 82%
    21:00 +24°C° 0,1 mm 1 mps 754 mmHg 84%
    22:00 +24°C° 0 mm 1 mps 754 mmHg 85%
    23:00 +23°C° 0 mm 1 mps 754 mmHg 87%

    25 Junio, Lunes

    Tiempo Temperatura Precipitaciones Viento Presión Humedad
    00:00 +23°C° 0 mm 1 mps 754 mmHg 88%
    01:00 +22°C° 0 mm 1 mps 754 mmHg 88%
    02:00 +22°C° 0 mm 1 mps 754 mmHg 88%
    03:00 +22°C° 0 mm 1 mps 754 mmHg 89%
    04:00 +23°C° 0 mm 1 mps 754 mmHg 87%
    05:00 +24°C° 0 mm 1 mps 755 mmHg 85%
    06:00 +25°C° 0 mm 1 mps 755 mmHg 83%
    07:00 +26°C° 0,2 mm 1 mps 755 mmHg 78%
    08:00 +27°C° 0,2 mm 1 mps 755 mmHg 74%
    09:00 +29°C° 0,2 mm 2 mps 754 mmHg 69%
    10:00 +29°C° 0,3 mm 2 mps 754 mmHg 65%
    11:00 +30°C° 0,3 mm 2 mps 754 mmHg 62%
    12:00 +30°C° 0,3 mm 2 mps 754 mmHg 59%
    13:00 +31°C° 0,1 mm 2 mps 754 mmHg 59%
    14:00 +31°C° 0,1 mm 2 mps 754 mmHg 60%
    15:00 +31°C° 0,1 mm 2 mps 754 mmHg 60%
    16:00 +30°C° 0,6 mm 2 mps 754 mmHg 65%
    17:00 +30°C° 0,6 mm 2 mps 754 mmHg 69%
    18:00 +29°C° 0,6 mm 1 mps 754 mmHg 73%
    19:00 +27°C° 0,3 mm 1 mps 754 mmHg 76%
    20:00 +26°C° 0,3 mm 1 mps 755 mmHg 78%
    21:00 +24°C° 0,3 mm 1 mps 755 mmHg 81%
    22:00 +24°C° 0 mm 1 mps 755 mmHg 81%
    23:00 +23°C° 0 mm 1 mps 755 mmHg 82%

    26 Junio, Martes

    Tiempo Temperatura Precipitaciones Viento Presión Humedad
    00:00 +23°C° 0 mm 1 mps 755 mmHg 82%
    01:00 +21°C° 0,1 mm 2 mps 755 mmHg 84%
    02:00 +21°C° 0,1 mm 2 mps 755 mmHg 87%
    03:00 +20°C° 0,1 mm 2 mps 755 mmHg 89%
    04:00 +21°C° 0,5 mm 2 mps 755 mmHg 88%
    05:00 +23°C° 0,5 mm 2 mps 755 mmHg 86%
    06:00 +23°C° 0,5 mm 2 mps 755 mmHg 85%
    07:00 +25°C° 0,1 mm 3 mps 755 mmHg 82%
    08:00 +26°C° 0,1 mm 3 mps 755 mmHg 78%
    09:00 +27°C° 0,1 mm 4 mps 755 mmHg 74%
    10:00 +27°C° 0,3 mm 3 mps 755 mmHg 71%
    11:00 +28°C° 0,3 mm 3 mps 755 mmHg 68%
    12:00 +29°C° 0,3 mm 3 mps 755 mmHg 65%
    13:00 +29°C° 0 mm 3 mps 755 mmHg 63%
    14:00 +29°C° 0 mm 3 mps 755 mmHg 61%
    15:00 +30°C° 0 mm 3 mps 755 mmHg 60%
    16:00 +29°C° 0 mm 3 mps 755 mmHg 64%
    17:00 +29°C° 0 mm 2 mps 755 mmHg 68%
    18:00 +28°C° 0 mm 2 mps 755 mmHg 71%
    19:00 +26°C° 0 mm 2 mps 755 mmHg 76%
    20:00 +25°C° 0 mm 2 mps 755 mmHg 81%
    21:00 +23°C° 0 mm 2 mps 755 mmHg 86%
    22:00 +21°C° 0 mm 2 mps 755 mmHg 88%
    23:00 +21°C° 0 mm 2 mps 755 mmHg 90%

    27 Junio, Miércoles

    Tiempo Temperatura Precipitaciones Viento Presión Humedad
    00:00 +20°C° 0 mm 2 mps 755 mmHg 92%
    01:00 +20°C° 0 mm 2 mps 755 mmHg 93%
    02:00 +19°C° 0 mm 2 mps 756 mmHg 94%
    03:00 +19°C° 0 mm 3 mps 756 mmHg 95%
    04:00 +20°C° 0 mm 3 mps 756 mmHg 93%
    05:00 +21°C° 0 mm 3 mps 756 mmHg 90%
    06:00 +22°C° 0 mm 4 mps 756 mmHg 88%
    07:00 +23°C° 0,2 mm 4 mps 756 mmHg 84%
    08:00 +25°C° 0,2 mm 4 mps 756 mmHg 80%
    09:00 +27°C° 0,2 mm 4 mps 755 mmHg 76%
    10:00 +27°C° 0,6 mm 4 mps 755 mmHg 73%
    11:00 +28°C° 0,6 mm 3 mps 755 mmHg 70%
    12:00 +29°C° 0,6 mm 3 mps 755 mmHg 66%
    13:00 +29°C° 0,6 mm 3 mps 755 mmHg 65%
    14:00 +29°C° 0,6 mm 3 mps 755 mmHg 64%
    15:00 +29°C° 0,6 mm 3 mps 755 mmHg 63%
    16:00 +29°C° 0,1 mm 3 mps 755 mmHg 67%
    17:00 +28°C° 0,1 mm 3 mps 755 mmHg 71%
    18:00 +28°C° 0,1 mm 3 mps 754 mmHg 76%
    19:00 +26°C° 0 mm 3 mps 755 mmHg 80%
    20:00 +25°C° 0 mm 3 mps 755 mmHg 83%
    21:00 +22°C° 0 mm 3 mps 755 mmHg 87%
    22:00 +22°C° 0 mm 3 mps 755 mmHg 89%
    23:00 +21°C° 0 mm 3 mps 755 mmHg 90%
    Mostrar más